[[{"header":{"parameterUnit":"m.s-1","parameterCategory":1,"la1":30.2992,"la2":30.254,"lo1":-89.0895,"lo2":-89.0443,"dy":0.0025,"dx":0.0025,"nx":19,"ny":19,"refTime":"2026-03-27T03:00:00:Z","depth":0,"parameterNumber":2,"parameterNumberName":"U-component_of_WINDS"},"data":[0,0,0,0.9921,0.9924,1.0052,1.0052,1.0201,1.0202,0,0,0,0,0,0,0,0,0,0,0,0.9871,0.9871,0.9921,0.9924,1.0052,1.0052,1.0201,1.0202,0,0,0,0,0,0,0,0,0,0,0,0.9871,0.9871,0.9872,0.9924,1.0052,1.0052,1.0201,1.011,0,0,0,0,0,0,0,0,0,0,0.9989,0.9929,0.9871,0.9872,0.9925,1.0051,1.0053,1.0106,1.0116,1.0136,0,1.0147,0,1.0177,1.0211,1.0211,0,0,0,0.9934,0.9921,0.9966,0.9872,0.9926,1.0051,0.9997,1.0112,1.0123,1.0148,1.0149,1.0155,1.0179,1.0212,1.0212,1.0286,1.0286,0,0,0.9927,0.9888,0.9959,0.9973,0.9948,0.9993,1.0001,1.0119,1.0118,1.015,1.0159,1.0181,1.0213,1.0214,1.0286,1.0286,0,0,0,0.99,0.9882,0.9926,0.9966,0.999,0.9996,1.0005,1.0113,1.013,1.0161,1.0183,1.0213,1.0215,1.0286,1.0286,1.024,0,0,0,0.9896,0.9866,0.9922,0.9899,0.9987,1.0052,0.9996,1.0122,1.0137,1.0182,1.0213,1.0216,1.0286,1.0286,1.0241,1.0225,0,0,0,0.9867,0.9863,0.9877,0.9897,0.995,1.0051,1.0076,1.0126,1.015,1.0212,1.0217,1.0287,1.0286,1.0243,1.0227,1.0233,0,0,0,0.9825,0.9835,0.9876,0.9896,0.9948,1.0021,1.0075,1.0132,1.0179,1.0214,1.0286,1.0286,1.0243,1.0229,1.0234,1.0229,1.0223,0,0,0.9816,0.9832,0.9848,0.9888,0.9942,1.0005,1.0054,1.0136,1.018,1.0249,1.0251,1.0241,1.0227,1.0233,1.0206,1.0201,0,0,0,0.9832,0.9842,0.9865,0.9907,0.9969,1.0022,1.01,1.0131,1.0191,1.0206,1.0246,1.0239,1.0244,1.0244,1.0239,1.0247,1.0284,1.0284,1.0284,0.9762,0.9815,0.9845,0.9915,0.9955,1.0037,1.0076,1.0132,1.0175,1.0184,1.0205,1.0182,1.018,1.0177,1.0184,1.0207,1.0207,1.0207,1.0207,0.9753,0.9777,0.9834,0.9883,0.9942,0.9985,1.0066,1.0095,1.0146,1.017,1.0177,1.0198,1.017,1.0179,1.0204,1.0204,1.0205,1.0205,1.0205,0.9713,0.9733,0.977,0.9838,0.9885,0.9957,1.0003,1.0055,1.0105,1.0112,1.014,1.0141,1.0149,1.0122,1.0122,1.0122,1.0122,1.0122,1.0122,0.9656,0.9699,0.9729,0.9797,0.9832,0.9885,0.9969,1.0006,1.0061,1.0095,1.0096,1.0139,1.0156,1.0159,1.0121,1.0121,1.0121,1.0121,1.0121,0.9626,0.9642,0.9688,0.9723,0.9808,0.9852,0.9919,0.9991,1.0029,1.0051,1.0094,1.0098,1.0119,1.0123,1.0126,1.0081,1.0081,1.0081,1.0081,0.9591,0.9607,0.9668,0.9721,0.9779,0.9844,0.9899,0.9966,1.0038,1.0066,1.0081,1.0089,1.0091,1.0112,1.0116,1.0119,1.0074,1.0074,1.0074,0.9576,0.9601,0.9635,0.9703,0.9775,0.9836,0.9889,0.9951,1.0036,1.0074,1.009,1.009,1.0105,1.0106,1.0143,1.0148,1.0155,0,0]},{"header":{"parameterUnit":"m.s-1","parameterCategory":1,"la1":30.2992,"la2":30.254,"lo1":-89.0895,"lo2":-89.0443,"dy":0.0025,"dx":0.0025,"nx":19,"ny":19,"refTime":"2026-03-27T03:00:00:Z","depth":0,"parameterNumber":3,"parameterNumberName":"V-component_of_WINDS"},"data":[0,0,0,1.0002,1.0004,1.0076,1.0076,1.0159,1.016,0,0,0,0,0,0,0,0,0,0,0,0.9976,0.9976,1.0002,1.0004,1.0076,1.0076,1.0159,1.016,0,0,0,0,0,0,0,0,0,0,0,0.9976,0.9976,0.9977,1.0004,1.0076,1.0076,1.0159,1.0107,0,0,0,0,0,0,0,0,0,0,1.0039,1.001,0.9976,0.9977,1.0004,1.0075,1.0076,1.0105,1.0111,1.0123,0,1.0132,0,1.0147,1.0165,1.0165,0,0,0,1.0007,1.0005,1.0029,0.9977,1.0005,1.0075,1.0044,1.0108,1.0114,1.013,1.0134,1.0137,1.0149,1.0165,1.0165,1.0226,1.0226,0,0,1.0003,0.9986,1.0025,1.0033,1.0022,1.0042,1.0046,1.0112,1.0115,1.0134,1.0139,1.015,1.0166,1.0166,1.0226,1.0226,0,0,0,0.9989,0.9983,1.0006,1.003,1.0043,1.0044,1.0049,1.0112,1.0121,1.014,1.0151,1.0166,1.0167,1.0225,1.0226,1.0215,0,0,0,0.9987,0.9975,1.0004,0.9994,1.0042,1.0079,1.0047,1.0116,1.0124,1.0151,1.0166,1.0168,1.0225,1.0225,1.0215,1.0213,0,0,0,0.9973,0.9973,0.9982,0.9993,1.0023,1.0078,1.0091,1.0118,1.0131,1.0165,1.0168,1.0225,1.0225,1.0215,1.0213,1.0225,0,0,0,0.9952,0.9971,0.9982,1.0007,1.0022,1.0071,1.0091,1.0128,1.0156,1.0166,1.0225,1.0226,1.0216,1.0213,1.0225,1.0231,1.0232,0,0,0.9966,0.9972,0.9988,1.0,1.0043,1.0062,1.0103,1.0144,1.0163,1.0203,1.0205,1.0215,1.0213,1.0225,1.0244,1.0245,0,0,0,0.9987,0.9999,1.0014,1.004,1.0073,1.0101,1.0138,1.0154,1.019,1.018,1.0223,1.0222,1.023,1.0233,1.0234,1.0242,1.0227,1.0227,1.0227,0.9981,1.0005,1.0034,1.0067,1.0093,1.0132,1.0154,1.0182,1.0197,1.0207,1.0219,1.0229,1.0232,1.0233,1.0241,1.0225,1.0225,1.0225,1.0225,1.0004,1.0025,1.0047,1.0083,1.0108,1.0138,1.0177,1.0187,1.0219,1.0221,1.0229,1.0229,1.0233,1.0241,1.0224,1.0224,1.0224,1.0224,1.0224,1.0003,1.0017,1.0037,1.0079,1.0108,1.0141,1.0171,1.0192,1.0213,1.022,1.0236,1.0236,1.0239,1.0226,1.0226,1.0226,1.0226,1.0226,1.0226,0.9994,1.0017,1.004,1.0078,1.0098,1.0128,1.0168,1.0189,1.0217,1.0231,1.0231,1.0246,1.0229,1.0225,1.0227,1.0227,1.0227,1.0227,1.0227,1.0008,1.0009,1.0045,1.0065,1.0112,1.0141,1.0168,1.0209,1.0229,1.0243,1.0257,1.0241,1.0248,1.0248,1.0245,1.0252,1.0252,1.0252,1.0252,1.0007,1.0014,1.0056,1.0088,1.0122,1.0151,1.0191,1.0222,1.0255,1.0269,1.0271,1.0269,1.0267,1.0275,1.0274,1.0271,1.0285,1.0285,1.0285,1.0018,1.0029,1.0058,1.0092,1.013,1.0163,1.0201,1.0237,1.0274,1.0287,1.0281,1.0279,1.0275,1.0272,1.0284,1.0282,1.0278,0,0]}]]